Time,TemperatureF,DewpointF,PressureIn,WindDirection,WindDirectionDegrees,WindSpeedMPH,WindSpeedGustMPH,Humidity,HourlyPrecipIn,Conditions,Clouds,dailyrainin,SolarRadiationWatts/m^2,SoftwareType,DateUTC
2013-05-07 00:02:00,52.0,40.0,-100.00,ENE,62,3.0,6.0,64,0.00,,,0.00,0.000000,,2013-05-07 05:02:00,
2013-05-07 00:32:00,52.0,40.0,-100.00,ENE,62,3.0,6.0,64,0.00,,,0.00,0.000000,,2013-05-07 05:32:00,
2013-05-07 00:42:00,52.0,40.0,-100.00,ENE,62,3.0,6.0,64,0.00,,,0.00,0.000000,,2013-05-07 05:42:00,
2013-05-07 00:52:00,52.0,40.0,-100.00,ENE,62,3.0,6.0,64,0.00,,,0.00,0.000000,,2013-05-07 05:52:00,
2013-05-07 01:02:00,50.0,40.0,-100.00,East,82,3.0,5.0,68,0.00,,,0.00,0.000000,,2013-05-07 06:02:00,
2013-05-07 01:22:00,50.0,40.0,-100.00,East,82,3.0,5.0,68,0.00,,,0.00,0.000000,,2013-05-07 06:22:00,
2013-05-07 01:32:00,50.0,40.0,-100.00,East,82,3.0,5.0,68,0.00,,,0.00,0.000000,,2013-05-07 06:32:00,
2013-05-07 01:42:00,50.0,40.0,-100.00,East,82,3.0,5.0,68,0.00,,,0.00,0.000000,,2013-05-07 06:42:00,
2013-05-07 01:52:00,50.0,40.0,-100.00,East,82,3.0,5.0,68,0.00,,,0.00,0.000000,,2013-05-07 06:52:00,
2013-05-07 02:02:00,48.0,39.0,-100.00,ESE,109,1.0,4.0,72,0.00,,,0.00,0.000000,,2013-05-07 07:02:00,
2013-05-07 02:32:00,48.0,39.0,-100.00,ESE,109,1.0,4.0,72,0.00,,,0.00,0.000000,,2013-05-07 07:32:00,
2013-05-07 02:42:00,48.0,39.0,-100.00,ESE,109,1.0,4.0,72,0.00,,,0.00,0.000000,,2013-05-07 07:42:00,
2013-05-07 02:52:00,48.0,39.0,-100.00,ESE,109,1.0,4.0,72,0.00,,,0.00,0.000000,,2013-05-07 07:52:00,
2013-05-07 03:32:00,48.0,39.0,-100.00,ESE,122,2.0,2.0,71,0.00,,,0.00,0.000000,,2013-05-07 08:32:00,
2013-05-07 03:42:00,48.0,39.0,-100.00,ESE,122,2.0,2.0,71,0.00,,,0.00,0.000000,,2013-05-07 08:42:00,
2013-05-07 03:52:00,48.0,39.0,-100.00,ESE,122,2.0,2.0,71,0.00,,,0.00,0.000000,,2013-05-07 08:52:00,
2013-05-07 04:01:00,48.0,39.0,-100.00,ESE,122,2.0,2.0,71,0.00,,,0.00,0.000000,,2013-05-07 09:01:00,
2013-05-07 04:02:00,46.0,38.0,-100.00,SE,128,2.0,2.0,73,0.00,,,0.00,0.000000,,2013-05-07 09:02:00,
2013-05-07 04:33:00,46.0,38.0,-100.00,SE,128,2.0,2.0,73,0.00,,,0.00,0.000000,,2013-05-07 09:33:00,
2013-05-07 04:43:00,46.0,38.0,-100.00,SE,128,2.0,2.0,73,0.00,,,0.00,0.000000,,2013-05-07 09:43:00,
2013-05-07 04:52:00,46.0,38.0,-100.00,SE,128,2.0,2.0,73,0.00,,,0.00,0.000000,,2013-05-07 09:52:00,
2013-05-07 05:02:00,45.0,37.0,-100.00,ESE,123,2.0,3.0,72,0.00,,,0.00,0.000000,,2013-05-07 10:02:00,
2013-05-07 05:23:00,45.0,37.0,-100.00,ESE,123,2.0,3.0,72,0.00,,,0.00,0.000000,,2013-05-07 10:23:00,
2013-05-07 05:32:00,45.0,37.0,-100.00,ESE,123,2.0,3.0,72,0.00,,,0.00,0.000000,,2013-05-07 10:32:00,
2013-05-07 05:42:00,45.0,37.0,-100.00,ESE,123,2.0,3.0,72,0.00,,,0.00,0.000000,,2013-05-07 10:42:00,
2013-05-07 05:52:00,45.0,37.0,-100.00,ESE,123,2.0,3.0,72,0.00,,,0.00,0.000000,,2013-05-07 10:52:00,
2013-05-07 06:02:00,45.0,37.0,-100.00,ESE,109,2.0,4.0,72,0.00,,,-99.99,9.000000,,2013-05-07 11:02:00,
2013-05-07 06:32:00,45.0,37.0,-100.00,ESE,109,2.0,4.0,72,0.00,,,-99.99,9.000000,,2013-05-07 11:32:00,
2013-05-07 06:42:00,45.0,37.0,-100.00,ESE,109,2.0,4.0,72,0.00,,,-99.99,9.000000,,2013-05-07 11:42:00,
2013-05-07 06:52:00,45.0,37.0,-100.00,ESE,109,2.0,4.0,72,0.00,,,-99.99,9.000000,,2013-05-07 11:52:00,
2013-05-07 07:02:00,53.0,37.0,-100.00,SSE,158,0.0,3.0,55,0.00,,,0.00,123.000000,,2013-05-07 12:02:00,
2013-05-07 07:22:00,53.0,37.0,-100.00,SSE,158,0.0,3.0,55,0.00,,,0.00,123.000000,,2013-05-07 12:22:00,
2013-05-07 07:32:00,53.0,37.0,-100.00,SSE,158,0.0,3.0,55,0.00,,,0.00,123.000000,,2013-05-07 12:32:00,
2013-05-07 07:42:00,53.0,37.0,-100.00,SSE,158,0.0,3.0,55,0.00,,,0.00,123.000000,,2013-05-07 12:42:00,
2013-05-07 07:52:00,53.0,37.0,-100.00,SSE,158,0.0,3.0,55,0.00,,,0.00,123.000000,,2013-05-07 12:52:00,
2013-05-07 08:02:00,59.0,39.0,-100.00,NNW,336,2.0,4.0,48,0.00,,,-99.99,337.000000,,2013-05-07 13:02:00,
2013-05-07 08:32:00,59.0,39.0,-100.00,NNW,336,2.0,4.0,48,0.00,,,-99.99,337.000000,,2013-05-07 13:32:00,
2013-05-07 08:42:00,59.0,39.0,-100.00,NNW,336,2.0,4.0,48,0.00,,,-99.99,337.000000,,2013-05-07 13:42:00,
2013-05-07 08:52:00,59.0,39.0,-100.00,NNW,336,2.0,4.0,48,0.00,,,-99.99,337.000000,,2013-05-07 13:52:00,
2013-05-07 09:32:00,67.0,37.0,-100.00,SW,214,1.0,3.0,33,0.00,,,0.00,522.000000,,2013-05-07 14:32:00,
2013-05-07 09:42:00,67.0,37.0,-100.00,SW,214,1.0,3.0,33,0.00,,,0.00,522.000000,,2013-05-07 14:42:00,
2013-05-07 09:52:00,67.0,37.0,-100.00,SW,214,1.0,3.0,33,0.00,,,0.00,522.000000,,2013-05-07 14:52:00,
2013-05-07 10:01:00,67.0,37.0,-100.00,SW,214,1.0,3.0,33,0.00,,,0.00,522.000000,,2013-05-07 15:01:00,
2013-05-07 10:02:00,71.0,34.0,-100.00,South,191,0.0,2.0,26,0.00,,,0.00,687.000000,,2013-05-07 15:02:00,
2013-05-07 10:33:00,71.0,34.0,-100.00,South,191,0.0,2.0,26,0.00,,,0.00,687.000000,,2013-05-07 15:33:00,
2013-05-07 10:42:00,71.0,34.0,-100.00,South,191,0.0,2.0,26,0.00,,,0.00,687.000000,,2013-05-07 15:42:00,
2013-05-07 10:53:00,71.0,34.0,-100.00,South,191,0.0,2.0,26,0.00,,,0.00,687.000000,,2013-05-07 15:53:00,
2013-05-07 13:02:00,78.0,34.0,-100.00,ESE,123,1.0,3.0,20,-99.99,,,0.00,822.000000,,2013-05-07 18:02:00,
2013-05-07 13:32:00,78.0,34.0,-100.00,ESE,123,1.0,3.0,20,-99.99,,,0.00,822.000000,,2013-05-07 18:32:00,
2013-05-07 13:42:00,78.0,34.0,-100.00,ESE,123,1.0,3.0,20,-99.99,,,0.00,822.000000,,2013-05-07 18:42:00,
2013-05-07 13:52:00,78.0,34.0,-100.00,ESE,123,1.0,3.0,20,-99.99,,,0.00,822.000000,,2013-05-07 18:52:00,
2013-05-07 14:02:00,77.0,33.0,-100.00,SW,234,0.0,4.0,20,0.00,,,0.00,556.000000,,2013-05-07 19:02:00,
2013-05-07 14:32:00,77.0,33.0,-100.00,SW,234,0.0,4.0,20,0.00,,,0.00,556.000000,,2013-05-07 19:32:00,
2013-05-07 14:42:00,77.0,33.0,-100.00,SW,234,0.0,4.0,20,0.00,,,0.00,556.000000,,2013-05-07 19:42:00,
2013-05-07 14:52:00,77.0,33.0,-100.00,SW,234,0.0,4.0,20,0.00,,,0.00,556.000000,,2013-05-07 19:52:00,
2013-05-07 15:32:00,74.0,33.0,-100.00,NE,38,1.0,3.0,22,0.00,,,0.00,434.000000,,2013-05-07 20:32:00,
2013-05-07 15:42:00,74.0,33.0,-100.00,NE,38,1.0,3.0,22,0.00,,,0.00,434.000000,,2013-05-07 20:42:00,
2013-05-07 15:52:00,74.0,33.0,-100.00,NE,38,1.0,3.0,22,0.00,,,0.00,434.000000,,2013-05-07 20:52:00,
2013-05-07 16:01:00,74.0,33.0,-100.00,NE,38,1.0,3.0,22,0.00,,,0.00,434.000000,,2013-05-07 21:01:00,
2013-05-07 16:02:00,75.0,31.0,-100.00,NE,38,1.0,3.0,20,0.00,,,0.00,283.000000,,2013-05-07 21:02:00,
2013-05-07 16:22:00,75.0,31.0,-100.00,NE,38,1.0,3.0,20,0.00,,,0.00,283.000000,,2013-05-07 21:22:00,
2013-05-07 16:33:00,75.0,31.0,-100.00,NE,38,1.0,3.0,20,0.00,,,0.00,283.000000,,2013-05-07 21:33:00,
2013-05-07 16:43:00,75.0,31.0,-100.00,NE,38,1.0,3.0,20,0.00,,,0.00,283.000000,,2013-05-07 21:43:00,
2013-05-07 16:53:00,75.0,31.0,-100.00,NE,38,1.0,3.0,20,0.00,,,0.00,283.000000,,2013-05-07 21:53:00,
2013-05-07 17:02:00,80.0,31.0,-100.00,ESE,116,0.0,4.0,17,0.00,,,0.00,493.000000,,2013-05-07 22:02:00,
2013-05-07 17:33:00,80.0,31.0,-100.00,ESE,116,0.0,4.0,17,0.00,,,0.00,493.000000,,2013-05-07 22:33:00,
2013-05-07 17:42:00,80.0,31.0,-100.00,ESE,116,0.0,4.0,17,0.00,,,0.00,493.000000,,2013-05-07 22:42:00,
2013-05-07 17:52:00,80.0,31.0,-100.00,ESE,116,0.0,4.0,17,0.00,,,0.00,493.000000,,2013-05-07 22:52:00,
2013-05-07 18:02:00,74.0,32.0,-100.00,WSW,239,2.0,4.0,21,0.00,,,0.00,276.000000,,2013-05-07 23:02:00,
2013-05-07 18:22:00,74.0,32.0,-100.00,WSW,239,2.0,4.0,21,0.00,,,0.00,276.000000,,2013-05-07 23:22:00,
2013-05-07 18:32:00,74.0,32.0,-100.00,WSW,239,2.0,4.0,21,0.00,,,0.00,276.000000,,2013-05-07 23:32:00,
2013-05-07 18:42:00,74.0,32.0,-100.00,WSW,239,2.0,4.0,21,0.00,,,0.00,276.000000,,2013-05-07 23:42:00,
2013-05-07 18:52:00,74.0,32.0,-100.00,WSW,239,2.0,4.0,21,0.00,,,0.00,276.000000,,2013-05-07 23:52:00,
2013-05-07 19:02:00,69.0,33.0,-100.00,WSW,240,3.0,7.0,26,0.00,,,0.00,72.000000,,2013-05-08 00:02:00,
2013-05-07 19:22:00,69.0,33.0,-100.00,WSW,240,3.0,7.0,26,0.00,,,0.00,72.000000,,2013-05-08 00:22:00,
2013-05-07 19:32:00,69.0,33.0,-100.00,WSW,240,3.0,7.0,26,0.00,,,0.00,72.000000,,2013-05-08 00:32:00,
2013-05-07 19:42:00,69.0,33.0,-100.00,WSW,240,3.0,7.0,26,0.00,,,0.00,72.000000,,2013-05-08 00:42:00,
2013-05-07 19:52:00,69.0,33.0,-100.00,WSW,240,3.0,7.0,26,0.00,,,0.00,72.000000,,2013-05-08 00:52:00,
2013-05-07 20:32:00,66.0,38.0,-100.00,North,4,3.0,7.0,36,0.00,,,0.00,32.000000,,2013-05-08 01:32:00,
2013-05-07 20:42:00,66.0,38.0,-100.00,North,4,3.0,7.0,36,0.00,,,0.00,32.000000,,2013-05-08 01:42:00,
2013-05-07 20:52:00,66.0,38.0,-100.00,North,4,3.0,7.0,36,0.00,,,0.00,32.000000,,2013-05-08 01:52:00,
2013-05-07 21:01:00,66.0,38.0,-100.00,North,4,3.0,7.0,36,0.00,,,0.00,32.000000,,2013-05-08 02:01:00,
2013-05-07 21:02:00,63.0,38.0,-100.00,NNE,22,3.0,7.0,39,0.00,,,0.00,2.000000,,2013-05-08 02:02:00,
2013-05-07 21:32:00,63.0,38.0,-100.00,NNE,22,3.0,7.0,39,0.00,,,0.00,2.000000,,2013-05-08 02:32:00,
2013-05-07 21:42:00,63.0,38.0,-100.00,NNE,22,3.0,7.0,39,0.00,,,0.00,2.000000,,2013-05-08 02:42:00,
2013-05-07 21:52:00,63.0,38.0,-100.00,NNE,22,3.0,7.0,39,0.00,,,0.00,2.000000,,2013-05-08 02:52:00,
2013-05-07 22:02:00,57.0,39.0,-100.00,SSE,154,1.0,4.0,50,0.00,,,0.00,0.000000,,2013-05-08 03:02:00,
2013-05-07 22:22:00,57.0,39.0,-100.00,SSE,154,1.0,4.0,50,0.00,,,0.00,0.000000,,2013-05-08 03:22:00,
2013-05-07 22:33:00,57.0,39.0,-100.00,SSE,154,1.0,4.0,50,0.00,,,0.00,0.000000,,2013-05-08 03:33:00,
2013-05-07 22:43:00,57.0,39.0,-100.00,SSE,154,1.0,4.0,50,0.00,,,0.00,0.000000,,2013-05-08 03:43:00,
2013-05-07 22:52:00,57.0,39.0,-100.00,SSE,154,1.0,4.0,50,0.00,,,0.00,0.000000,,2013-05-08 03:52:00,
2013-05-07 23:02:00,56.0,38.0,-100.00,SSE,168,1.0,4.0,51,0.00,,,0.00,0.000000,,2013-05-08 04:02:00,
2013-05-07 23:33:00,56.0,38.0,-100.00,SSE,168,1.0,4.0,51,0.00,,,0.00,0.000000,,2013-05-08 04:33:00,
2013-05-07 23:43:00,56.0,38.0,-100.00,SSE,168,1.0,4.0,51,0.00,,,0.00,0.000000,,2013-05-08 04:43:00,
2013-05-07 23:53:00,56.0,38.0,-100.00,SSE,168,1.0,4.0,51,0.00,,,0.00,0.000000,,2013-05-08 04:53:00,